When you browse on this site, cookies collect data to enhance your experience and personalize the content and advertising you see.
Visit our Privacy Policy to learn more. By continuing to use the site, you agree to this use of cookies and data.
  • In Deutschland
  • Länderverzeichnis
  • Für 7 Tage
  • Wassertemperatur
  • Satellitenkarten
  • Wetterkarte
  • Widgets
  • user-avatar
    Anmelden

    Stündliche Wetter Malahovka

    Heute, 18 November, Sonntag

    Zeit Temperatur Niederschläge Wind Luftdruck Luftfeuchtigkeit
    00:00 -3°C° 0 mm 4 m/S 752 mmHg 75%
    01:00 -3°C° 0 mm 4 m/S 752 mmHg 78%
    02:00 -3°C° 0 mm 4 m/S 750 mmHg 74%
    03:00 -3°C° 0.1 mm 4 m/S 750 mmHg 79%
    04:00 -3°C° 0.1 mm 4 m/S 749 mmHg 83%
    05:00 -3°C° 0.1 mm 4 m/S 748 mmHg 88%
    06:00 -2°C° 0.1 mm 3 m/S 748 mmHg 89%
    07:00 -2°C° 0.1 mm 3 m/S 747 mmHg 91%
    08:00 -2°C° 0.1 mm 2 m/S 747 mmHg 93%
    09:00 -1°C° 0.1 mm 2 m/S 747 mmHg 93%
    10:00 -1°C° 0.1 mm 2 m/S 747 mmHg 92%
    11:00 -1°C° 0.1 mm 2 m/S 747 mmHg 92%
    12:00 -1°C° 0 mm 2 m/S 747 mmHg 92%
    13:00 +2°C° 0 mm 1 m/S 747 mmHg 92%
    14:00 +2°C° 0 mm 1 m/S 747 mmHg 92%
    15:00 +2°C° 0 mm 1 m/S 747 mmHg 93%
    16:00 +2°C° 0 mm 1 m/S 747 mmHg 95%
    17:00 +1°C° 0 mm 1 m/S 747 mmHg 96%
    18:00 +1°C° 0 mm 1 m/S 747 mmHg 96%
    19:00 +1°C° 0 mm 1 m/S 748 mmHg 96%
    20:00 0°C° 0 mm 0 m/S 748 mmHg 96%
    21:00 0°C° 0 mm 0 m/S 748 mmHg 96%
    22:00 +1°C° 0 mm 1 m/S 748 mmHg 96%
    23:00 +1°C° 0 mm 1 m/S 749 mmHg 96%

    Morgen, 19 November, Montag

    Zeit Temperatur Niederschläge Wind Luftdruck Luftfeuchtigkeit
    00:00 +1°C° 0 mm 1 m/S 749 mmHg 96%
    01:00 +1°C° 0 mm 1 m/S 749 mmHg 96%
    02:00 +1°C° 0 mm 1 m/S 749 mmHg 96%
    03:00 +1°C° 0 mm 1 m/S 750 mmHg 97%
    04:00 +1°C° 0 mm 1 m/S 750 mmHg 97%
    05:00 +1°C° 0 mm 1 m/S 750 mmHg 97%
    06:00 +1°C° 0 mm 1 m/S 750 mmHg 97%
    07:00 -1°C° 0 mm 2 m/S 751 mmHg 97%
    08:00 -1°C° 0 mm 2 m/S 751 mmHg 97%
    09:00 +1°C° 0 mm 2 m/S 751 mmHg 94%
    10:00 +1°C° 0 mm 2 m/S 752 mmHg 92%
    11:00 +1°C° 0 mm 3 m/S 752 mmHg 90%
    12:00 0°C° 0 mm 3 m/S 752 mmHg 90%
    13:00 0°C° 0 mm 3 m/S 752 mmHg 90%
    14:00 0°C° 0 mm 3 m/S 752 mmHg 90%
    15:00 0°C° 0 mm 3 m/S 752 mmHg 90%
    16:00 0°C° 0 mm 3 m/S 753 mmHg 91%
    17:00 0°C° 0 mm 3 m/S 753 mmHg 91%
    18:00 -1°C° 0 mm 3 m/S 753 mmHg 91%
    19:00 -1°C° 0 mm 3 m/S 753 mmHg 91%
    20:00 -1°C° 0 mm 3 m/S 753 mmHg 91%
    21:00 -1°C° 0 mm 3 m/S 753 mmHg 91%
    22:00 -1°C° 0 mm 3 m/S 753 mmHg 91%
    23:00 -1°C° 0 mm 3 m/S 753 mmHg 92%

    übermorgen, 20 November, Dienstag

    Zeit Temperatur Niederschläge Wind Luftdruck Luftfeuchtigkeit
    00:00 -1°C° 0 mm 3 m/S 753 mmHg 92%
    01:00 -1°C° 0 mm 3 m/S 753 mmHg 92%
    02:00 -1°C° 0 mm 3 m/S 753 mmHg 92%
    03:00 -1°C° 0 mm 3 m/S 753 mmHg 93%
    04:00 -1°C° 0 mm 3 m/S 753 mmHg 93%
    05:00 -1°C° 0 mm 3 m/S 753 mmHg 93%
    06:00 -1°C° 0 mm 3 m/S 753 mmHg 93%
    07:00 -1°C° 0 mm 3 m/S 753 mmHg 92%
    08:00 -2°C° 0 mm 3 m/S 753 mmHg 92%
    09:00 -1°C° 0 mm 3 m/S 753 mmHg 90%
    10:00 -1°C° 0 mm 3 m/S 753 mmHg 88%
    11:00 -1°C° 0 mm 3 m/S 753 mmHg 86%
    12:00 -1°C° 0 mm 2 m/S 753 mmHg 85%
    13:00 -1°C° 0 mm 2 m/S 753 mmHg 84%
    14:00 -1°C° 0 mm 2 m/S 752 mmHg 83%
    15:00 -1°C° 0 mm 2 m/S 752 mmHg 83%
    16:00 +1°C° 0 mm 1 m/S 752 mmHg 84%
    17:00 0°C° 0 mm 1 m/S 752 mmHg 84%
    18:00 0°C° 0 mm 1 m/S 752 mmHg 84%
    19:00 0°C° 0 mm 1 m/S 752 mmHg 84%
    20:00 0°C° 0 mm 1 m/S 752 mmHg 84%
    21:00 0°C° 0 mm 1 m/S 752 mmHg 84%
    22:00 0°C° 0 mm 1 m/S 752 mmHg 84%
    23:00 0°C° 0 mm 1 m/S 752 mmHg 85%

    21 November, Mittwoch

    Zeit Temperatur Niederschläge Wind Luftdruck Luftfeuchtigkeit
    00:00 0°C° 0 mm 1 m/S 752 mmHg 85%
    01:00 0°C° 0 mm 1 m/S 752 mmHg 86%
    02:00 0°C° 0 mm 1 m/S 752 mmHg 87%
    03:00 0°C° 0 mm 1 m/S 752 mmHg 88%
    04:00 0°C° 0 mm 1 m/S 752 mmHg 88%
    05:00 -3°C° 0 mm 2 m/S 752 mmHg 89%
    06:00 -3°C° 0 mm 2 m/S 752 mmHg 89%
    07:00 -3°C° 0 mm 2 m/S 752 mmHg 89%
    08:00 -3°C° 0 mm 2 m/S 752 mmHg 89%
    09:00 -2°C° 0 mm 2 m/S 752 mmHg 85%
    10:00 -2°C° 0 mm 2 m/S 752 mmHg 81%
    11:00 -2°C° 0 mm 2 m/S 752 mmHg 76%
    12:00 -2°C° 0 mm 2 m/S 752 mmHg 76%
    13:00 -2°C° 0 mm 2 m/S 752 mmHg 76%
    14:00 -2°C° 0 mm 2 m/S 752 mmHg 76%
    15:00 -2°C° 0 mm 2 m/S 752 mmHg 79%
    16:00 -2°C° 0 mm 2 m/S 752 mmHg 82%
    17:00 -3°C° 0 mm 2 m/S 752 mmHg 85%
    18:00 -3°C° 0 mm 2 m/S 752 mmHg 84%
    19:00 -3°C° 0 mm 2 m/S 752 mmHg 83%
    20:00 -3°C° 0 mm 2 m/S 752 mmHg 82%
    21:00 -2°C° 0 mm 2 m/S 752 mmHg 83%
    22:00 -2°C° 0 mm 2 m/S 752 mmHg 83%
    23:00 0°C° 0 mm 1 m/S 752 mmHg 84%

    22 November, Donnerstag

    Zeit Temperatur Niederschläge Wind Luftdruck Luftfeuchtigkeit
    00:00 0°C° 0 mm 1 m/S 752 mmHg 85%
    01:00 0°C° 0 mm 1 m/S 752 mmHg 85%
    02:00 -1°C° 0 mm 1 m/S 752 mmHg 86%
    03:00 -3°C° 0 mm 2 m/S 752 mmHg 87%
    04:00 -3°C° 0 mm 2 m/S 752 mmHg 88%
    05:00 -3°C° 0 mm 2 m/S 752 mmHg 88%
    06:00 -4°C° 0 mm 2 m/S 752 mmHg 88%
    07:00 -4°C° 0 mm 2 m/S 752 mmHg 88%
    08:00 -4°C° 0 mm 2 m/S 752 mmHg 88%
    09:00 -4°C° 0 mm 3 m/S 752 mmHg 85%
    10:00 -4°C° 0 mm 3 m/S 752 mmHg 81%
    11:00 -2°C° 0 mm 3 m/S 752 mmHg 78%
    12:00 -2°C° 0 mm 3 m/S 752 mmHg 78%
    13:00 -3°C° 0 mm 4 m/S 751 mmHg 79%
    14:00 -3°C° 0 mm 4 m/S 751 mmHg 79%
    15:00 -2°C° 0 mm 3 m/S 751 mmHg 82%
    16:00 -4°C° 0 mm 3 m/S 751 mmHg 86%
    17:00 -4°C° 0 mm 3 m/S 751 mmHg 89%
    18:00 -5°C° 0 mm 3 m/S 751 mmHg 90%
    19:00 -5°C° 0 mm 3 m/S 752 mmHg 91%
    20:00 -5°C° 0 mm 3 m/S 752 mmHg 91%
    21:00 -5°C° 0 mm 3 m/S 752 mmHg 90%
    22:00 -4°C° 0 mm 3 m/S 752 mmHg 89%
    23:00 -3°C° 0 mm 2 m/S 753 mmHg 87%

    23 November, Freitag

    Zeit Temperatur Niederschläge Wind Luftdruck Luftfeuchtigkeit
    00:00 -3°C° 0 mm 2 m/S 753 mmHg 87%
    01:00 -3°C° 0 mm 2 m/S 753 mmHg 88%
    02:00 -3°C° 0 mm 2 m/S 753 mmHg 88%
    03:00 -3°C° 0 mm 2 m/S 753 mmHg 89%
    04:00 -3°C° 0 mm 2 m/S 753 mmHg 89%
    05:00 -3°C° 0 mm 2 m/S 753 mmHg 90%
    06:00 -3°C° 0 mm 2 m/S 753 mmHg 91%
    07:00 -2°C° 0 mm 1 m/S 753 mmHg 92%
    08:00 -2°C° 0 mm 1 m/S 753 mmHg 93%
    09:00 -1°C° 0 mm 1 m/S 754 mmHg 90%
    10:00 -3°C° 0 mm 2 m/S 754 mmHg 87%
    11:00 -2°C° 0 mm 2 m/S 754 mmHg 84%
    12:00 -2°C° 0 mm 2 m/S 753 mmHg 84%
    13:00 -2°C° 0 mm 2 m/S 753 mmHg 84%
    14:00 -2°C° 0 mm 2 m/S 753 mmHg 84%
    15:00 -2°C° 0 mm 2 m/S 753 mmHg 88%
    16:00 -3°C° 0 mm 2 m/S 752 mmHg 91%
    17:00 -4°C° 0 mm 2 m/S 752 mmHg 94%
    18:00 -5°C° 0 mm 3 m/S 752 mmHg 94%
    19:00 -5°C° 0 mm 3 m/S 751 mmHg 94%
    20:00 -5°C° 0 mm 3 m/S 751 mmHg 94%
    21:00 -6°C° 0 mm 3 m/S 751 mmHg 94%
    22:00 -6°C° 0 mm 3 m/S 750 mmHg 93%
    23:00 -6°C° 0 mm 3 m/S 750 mmHg 93%
    Mehr zeigen